Flag for Canada Weather past 2 weeks in Winnipeg, Manitoba, Canada

Now
15 °F

Cold.


Feels Like: 3 °F
Forecast: N/A
Wind: 9 mph from Southwest

Location: Winnipeg The Forks

Current Time: Feb 27, 2015 at 3:53:03 PM

Latest Report: Feb 27, 2015 at 3:00 PM


Visibility: N/A

Pressure: 30.36 "Hg

Humidity: 53%

Dew point: 1 °F

Location of WinnipegLocation

Historic Weather in Winnipeg — Graph

°F

Winnipeg temperature yesterday

Maximum temperature yesterday: 7 °F (at 4:00 PM)
Minimum temperature yesterday: -11 °F (at 6:00 AM)
Average temperature yesterday: -1 °F

Past Weeks' High & Low Weather Summary

 TemperatureHumidityPressure
High27 °F (Feb 23, 10:00 PM)91% (Feb 24, 12:00 AM)30.83 "Hg (Feb 24, 12:00 AM)
Low-21 °F (Feb 22, 8:00 AM)46% (Feb 22, 5:00 PM)29.67 "Hg (Feb 23, 11:00 PM)
Average-1 °F66%30.30 "Hg
* Reported Feb 12 3:00 PM — Feb 27 3:00 PM, Winnipeg, Weather by CustomWeather, © 2015

Note: Actual official high and low records may vary slightly from our data, if they occured in-between our weather recording intervals... More about our weather records

Advertising

Winnipeg weather history for previous 24 hours

 ConditionsComfort  
Time TempWeatherWind HumidityBarometerVisibility
3:00 PM
Fri, Feb 27
15 °FCold.9 mph53%30.36 "HgN/A
2:00 PM14 °FCold.8 mph55%30.37 "HgN/A
1:00 PM11 °FCold.9 mph54%30.40 "HgN/A
12:00 PM8 °FFrigid.7 mph51%30.41 "HgN/A
11:00 AM4 °FFrigid.7 mph51%30.41 "HgN/A
10:00 AM1 °FFrigid.5 mph56%30.42 "HgN/A
9:00 AM-5 °FFrigid.7 mph64%30.42 "HgN/A
8:00 AM-7 °FFrigid.2 mph68%30.43 "HgN/A
7:00 AM-7 °FFrigid.1 mph67%30.43 "HgN/A
6:00 AM-6 °FFrigid.5 mph71%30.43 "HgN/A
5:00 AM-5 °FFrigid.3 mph68%30.43 "HgN/A
4:00 AM-4 °FFrigid.2 mph72%30.45 "HgN/A
3:00 AM0 °FFrigid.5 mph59%30.45 "HgN/A
2:00 AM-1 °FFrigid.7 mph63%30.47 "HgN/A
1:00 AM-1 °FFrigid.2 mph65%30.47 "HgN/A
12:00 AM1 °FFrigid.5 mph70%30.48 "HgN/A
11:00 PM
Thu, Feb 26
3 °FFrigid.3 mph63%30.50 "HgN/A
10:00 PM6 °FFrigid.2 mph57%30.51 "HgN/A
9:00 PM6 °FFrigid.3 mph63%30.52 "HgN/A
8:00 PM6 °FFrigid.2 mph59%30.53 "HgN/A
7:00 PM6 °FFrigid.3 mph57%30.55 "HgN/A
6:00 PM6 °FFrigid.3 mph55%30.55 "HgN/A
5:00 PM7 °FFrigid.6 mph52%30.55 "HgN/A
4:00 PM7 °FFrigid.5 mph51%30.56 "HgN/A
3:00 PM6 °FFrigid.5 mph51%30.56 "HgN/A
Weather by CustomWeather, © 2015

See weather overviewHow to use our weather pages